44.2°F
Current conditions from King Hill
Updated every 5 minutes
 
  Wednesday April 23, 2014

Station Historical Data
Daily Summary for November 18, 2011 Units:  Metric    English   Both
« Previous Day
Next Day »
Daily Weekly Monthly Yearly Custom
  High: Low: Average:
Temperature: 3.9 °C -2.5 °C 0.6 °C
Dew Point: -3.9 °C -7.1 °C -5.6 °C
Humidity: 74% 48% 64%
Wind Speed: 17.7km/h 1.6km/h 7.9km/h
Wind Gust: 29km/h - -
Wind- - WSW
Pressure: 1023.9 hPa 1010.7 hPa -
Precipitation: 0 mm    
Historical Graphs
 
 
Tabular Data for November 18, 2011
Time Temperature Dew Point Pressure Wind Wind Speed Wind Gust Humidity Daily Rainfall
00:04 -0.9 °C -5.2 °C 1011.1 hPa SW 3.2 km/h 11.3 km/h 73% 0 mm
00:09 -1 °C -5.2 °C 1010.7 hPa WSW 4.8 km/h 14.5 km/h 73% 0 mm
00:14 -1.1 °C -5.3 °C 1011.1 hPa WSW 3.2 km/h 14.5 km/h 73% 0 mm
00:19 -1.1 °C -5.1 °C 1011.1 hPa Calm   11.3 km/h 74% 0 mm
00:24 -1.1 °C -5.1 °C 1011.1 hPa WSW 3.2 km/h 11.3 km/h 74% 0 mm
00:29 -1 °C -5.1 °C 1011.1 hPa WSW 4.8 km/h 9.7 km/h 74% 0 mm
00:34 -1 °C -5.1 °C 1011.1 hPa WSW 4.8 km/h 9.7 km/h 74% 0 mm
00:39 -1.1 °C -5.1 °C 1011.1 hPa WSW 6.4 km/h 14.5 km/h 74% 0 mm
00:44 -0.9 °C -5 °C 1011.1 hPa West 6.4 km/h 16.1 km/h 74% 0 mm
00:49 -1 °C -5.1 °C 1011.1 hPa WSW 8 km/h 16.1 km/h 74% 0 mm
00:54 -1 °C -5.1 °C 1011.1 hPa SW 8 km/h 17.7 km/h 74% 0 mm
00:59 -1 °C -5.1 °C 1011.1 hPa WSW 6.4 km/h 17.7 km/h 74% 0 mm
01:04 -1 °C -5.1 °C 1011.1 hPa West 8 km/h 16.1 km/h 74% 0 mm
01:09 -1 °C -5.2 °C 1011.4 hPa West 9.7 km/h 17.7 km/h 73% 0 mm
01:14 -0.9 °C -5.2 °C 1011.4 hPa West 9.7 km/h 17.7 km/h 73% 0 mm
01:19 -0.9 °C -5.1 °C 1011.4 hPa West 6.4 km/h 17.7 km/h 73% 0 mm
01:24 -0.8 °C -5.1 °C 1011.7 hPa West 8 km/h 17.7 km/h 73% 0 mm
01:29 -0.9 °C -5.1 °C 1011.7 hPa West 9.7 km/h 20.9 km/h 73% 0 mm
01:34 -0.8 °C -5.1 °C 1011.7 hPa WSW 9.7 km/h 22.5 km/h 73% 0 mm
01:39 -0.8 °C -5 °C 1011.7 hPa West 9.7 km/h 22.5 km/h 73% 0 mm
01:44 -0.8 °C -5.1 °C 1012.1 hPa West 9.7 km/h 19.3 km/h 73% 0 mm
01:49 -0.9 °C -5.2 °C 1012.1 hPa West 12.9 km/h 20.9 km/h 73% 0 mm
01:54 -1 °C -5.1 °C 1012.1 hPa WSW 11.3 km/h 20.9 km/h 74% 0 mm
01:59 -0.9 °C -5.2 °C 1012.1 hPa WSW 11.3 km/h 19.3 km/h 73% 0 mm
02:04 -0.9 °C -5.2 °C 1012.4 hPa WSW 9.7 km/h 19.3 km/h 73% 0 mm
02:09 -0.9 °C -5.2 °C 1012.4 hPa WSW 8 km/h 20.9 km/h 73% 0 mm
02:14 -1 °C -5.2 °C 1012.8 hPa WSW 4.8 km/h 20.9 km/h 73% 0 mm
02:19 -1.1 °C -5.1 °C 1012.8 hPa WSW 8 km/h 16.1 km/h 74% 0 mm
02:24 -1.1 °C -5.1 °C 1012.8 hPa WSW 4.8 km/h 16.1 km/h 74% 0 mm
02:29 -1.1 °C -5.1 °C 1012.8 hPa West 4.8 km/h 14.5 km/h 74% 0 mm
02:34 -1.2 °C -5.3 °C 1013.1 hPa WSW 3.2 km/h 12.9 km/h 74% 0 mm
02:39 -1.3 °C -5.3 °C 1013.1 hPa WSW 6.4 km/h 14.5 km/h 74% 0 mm
02:44 -1.3 °C -5.3 °C 1013.1 hPa WSW 8 km/h 14.5 km/h 74% 0 mm
02:49 -1.2 °C -5.3 °C 1013.1 hPa West 9.7 km/h 16.1 km/h 74% 0 mm
02:54 -1.2 °C -5.3 °C 1013.1 hPa West 8 km/h 16.1 km/h 74% 0 mm
02:59 -1.2 °C -5.4 °C 1013.4 hPa West 11.3 km/h 17.7 km/h 73% 0 mm
03:04 -1.1 °C -5.3 °C 1013.4 hPa WSW 6.4 km/h 17.7 km/h 73% 0 mm
03:09 -0.9 °C -5.3 °C 1013.4 hPa West 6.4 km/h 20.9 km/h 72% 0 mm
03:14 -0.8 °C -5.2 °C 1013.4 hPa WSW 8 km/h 20.9 km/h 72% 0 mm
03:19 -0.8 °C -5.2 °C 1013.8 hPa WSW 9.7 km/h 14.5 km/h 72% 0 mm
03:24 -0.7 °C -5.3 °C 1013.8 hPa WSW 9.7 km/h 17.7 km/h 71% 0 mm
03:29 -0.6 °C -5.2 °C 1013.8 hPa West 8 km/h 17.7 km/h 71% 0 mm
03:34 -0.7 °C -5.3 °C 1013.8 hPa West 8 km/h 16.1 km/h 71% 0 mm
03:39 -0.7 °C -5.3 °C 1013.8 hPa West 4.8 km/h 16.1 km/h 71% 0 mm
03:44 -0.8 °C -5.4 °C 1014.1 hPa West 6.4 km/h 16.1 km/h 71% 0 mm
03:49 -0.7 °C -5.2 °C 1014.1 hPa WSW 8 km/h 16.1 km/h 72% 0 mm
03:54 -0.7 °C -5.3 °C 1014.1 hPa WSW 9.7 km/h 19.3 km/h 71% 0 mm
03:59 -0.7 °C -5.3 °C 1014.4 hPa WSW 8 km/h 19.3 km/h 71% 0 mm
04:04 -0.7 °C -5.3 °C 1014.4 hPa WSW 11.3 km/h 20.9 km/h 71% 0 mm
04:09 -0.7 °C -5.3 °C 1014.8 hPa West 8 km/h 20.9 km/h 71% 0 mm
04:14 -0.6 °C -5.2 °C 1014.8 hPa West 11.3 km/h 29 km/h 71% 0 mm
04:19 -0.5 °C -5.1 °C 1015.1 hPa West 11.3 km/h 29 km/h 71% 0 mm
04:24 -0.5 °C -5.1 °C 1015.1 hPa SW 6.4 km/h 22.5 km/h 71% 0 mm
04:29 -0.4 °C -5.1 °C 1015.1 hPa WSW 6.4 km/h 20.9 km/h 71% 0 mm
04:34 -0.4 °C -5.1 °C 1015.5 hPa WNW 9.7 km/h 19.3 km/h 71% 0 mm
04:39 -0.4 °C -5.1 °C 1015.5 hPa West 8 km/h 16.1 km/h 71% 0 mm
04:44 -0.5 °C -5.1 °C 1015.5 hPa West 4.8 km/h 16.1 km/h 71% 0 mm
04:49 -0.5 °C -5.1 °C 1015.5 hPa Calm   14.5 km/h 71% 0 mm
04:54 -0.6 °C -5 °C 1015.8 hPa WSW 3.2 km/h 14.5 km/h 72% 0 mm
04:59 -0.6 °C -5 °C 1015.8 hPa West 6.4 km/h 12.9 km/h 72% 0 mm
05:04 -0.6 °C -5 °C 1016.1 hPa West 4.8 km/h 12.9 km/h 72% 0 mm
05:09 -0.6 °C -5.1 °C 1016.1 hPa WNW 6.4 km/h 14.5 km/h 72% 0 mm
05:14 -0.7 °C -4.9 °C 1016.1 hPa WNW 9.7 km/h 14.5 km/h 73% 0 mm
05:19 -0.8 °C -5.2 °C 1016.1 hPa WNW 11.3 km/h 25.7 km/h 72% 0 mm
05:24 -0.8 °C -5.4 °C 1016.5 hPa WNW 12.9 km/h 25.7 km/h 71% 0 mm
05:29 -0.9 °C -5.5 °C 1016.5 hPa West 8 km/h 24.1 km/h 71% 0 mm
05:39 -1.1 °C -5.7 °C 1016.8 hPa WNW 12.9 km/h 20.9 km/h 71% 0 mm
05:44 -1.1 °C -5.8 °C 1016.8 hPa NW 8 km/h 24.1 km/h 70% 0 mm
05:49 -1.1 °C -5.9 °C 1017.2 hPa WNW 9.7 km/h 24.1 km/h 70% 0 mm
05:54 -1.2 °C -5.9 °C 1017.2 hPa WNW 9.7 km/h 20.9 km/h 70% 0 mm
05:59 -1.2 °C -5.8 °C 1017.5 hPa NW 6.4 km/h 17.7 km/h 71% 0 mm
06:04 -1.3 °C -5.9 °C 1017.5 hPa NW 4.8 km/h 11.3 km/h 71% 0 mm
06:09 -1.4 °C -6 °C 1017.5 hPa Calm   9.7 km/h 71% 0 mm
06:14 -1.6 °C -5.9 °C 1017.8 hPa Calm   8 km/h 72% 0 mm
06:19 -1.7 °C -5.9 °C 1017.8 hPa West 3.2 km/h 8 km/h 73% 0 mm
06:24 -1.8 °C -6.2 °C 1017.8 hPa WNW 6.4 km/h 11.3 km/h 72% 0 mm
06:29 -1.7 °C -6.2 °C 1018.2 hPa WNW 11.3 km/h 20.9 km/h 71% 0 mm
06:34 -1.6 °C -6.4 °C 1018.2 hPa NW 4.8 km/h 20.9 km/h 70% 0 mm
06:39 -1.7 °C -6.4 °C 1018.2 hPa Calm   14.5 km/h 70% 0 mm
06:44 -1.8 °C -6.6 °C 1018.2 hPa Calm   8 km/h 70% 0 mm
06:49 -2 °C -6.7 °C 1018.5 hPa Calm   8 km/h 70% 0 mm
06:54 -2.2 °C -6.8 °C 1018.5 hPa Calm   1.6 km/h 71% 0 mm
06:59 -2.5 °C -6.8 °C 1018.5 hPa SW 4.8 km/h 9.7 km/h 72% 0 mm
07:04 -2.4 °C -6.8 °C 1018.8 hPa West 1.6 km/h 9.7 km/h 72% 0 mm
07:09 -2.4 °C -6.8 °C 1018.8 hPa West 3.2 km/h 11.3 km/h 72% 0 mm
07:14 -2.3 °C -6.9 °C 1019.2 hPa West 3.2 km/h 12.9 km/h 71% 0 mm
07:19 -2.1 °C -6.8 °C 1019.2 hPa West 4.8 km/h 12.9 km/h 70% 0 mm
07:24 -2.1 °C -6.8 °C 1019.2 hPa West 3.2 km/h 11.3 km/h 70% 0 mm
07:29 -2 °C -6.7 °C 1019.5 hPa WSW 3.2 km/h 11.3 km/h 70% 0 mm
07:34 -1.9 °C -6.9 °C 1019.5 hPa West 3.2 km/h 12.9 km/h 69% 0 mm
07:44 -1.8 °C -6.8 °C 1019.5 hPa Calm   17.7 km/h 69% 0 mm
07:49 -2 °C -6.7 °C 1019.5 hPa West 1.6 km/h 8 km/h 70% 0 mm
07:54 -2.1 °C -6.8 °C 1019.9 hPa West 3.2 km/h 8 km/h 70% 0 mm
07:59 -2.1 °C -6.6 °C 1019.9 hPa WNW 3.2 km/h 9.7 km/h 71% 0 mm
08:04 -1.9 °C -6.5 °C 1020.2 hPa WNW 3.2 km/h 12.9 km/h 71% 0 mm
08:09 -1.8 °C -6.3 °C 1020.2 hPa WNW 6.4 km/h 12.9 km/h 71% 0 mm
08:14 -1.6 °C -6.1 °C 1020.2 hPa West 4.8 km/h 9.7 km/h 71% 0 mm
08:19 -1.4 °C -5.9 °C 1020.5 hPa Calm   9.7 km/h 71% 0 mm
08:24 -1.3 °C -5.8 °C 1020.5 hPa West 1.6 km/h 6.4 km/h 71% 0 mm
08:29 -1.1 °C -5.7 °C 1020.5 hPa SW 3.2 km/h 8 km/h 71% 0 mm
08:34 -0.9 °C -5.6 °C 1020.9 hPa WSW 1.6 km/h 8 km/h 71% 0 mm
08:39 -0.8 °C -5.6 °C 1020.9 hPa West 4.8 km/h 9.7 km/h 70% 0 mm
08:44 -0.7 °C -5.4 °C 1020.9 hPa WSW 4.8 km/h 11.3 km/h 70% 0 mm
08:49 -0.4 °C -5.4 °C 1020.9 hPa West 6.4 km/h 14.5 km/h 69% 0 mm
08:54 -0.3 °C -5.5 °C 1021.2 hPa West 6.4 km/h 17.7 km/h 68% 0 mm
08:59 -0.3 °C -5.4 °C 1021.2 hPa West 6.4 km/h 17.7 km/h 68% 0 mm
09:04 -0.3 °C -5.4 °C 1021.2 hPa WSW 3.2 km/h 9.7 km/h 68% 0 mm
09:09 -0.2 °C -5.4 °C 1021.2 hPa Calm   9.7 km/h 68% 0 mm
09:14 -0.1 °C -5.3 °C 1021.2 hPa WSW 3.2 km/h 8 km/h 68% 0 mm
09:20 0.1 °C -5.2 °C 1021.2 hPa West 3.2 km/h 9.7 km/h 68% 0 mm
09:29 0.4 °C -5.2 °C 1021.2 hPa West 6.4 km/h 11.3 km/h 66% 0 mm
09:34 0.3 °C -5.3 °C 1021.2 hPa WNW 4.8 km/h 11.3 km/h 66% 0 mm
09:39 0.3 °C -5.3 °C 1021.6 hPa WNW 4.8 km/h 11.3 km/h 66% 0 mm
09:44 0.3 °C -5.1 °C 1021.6 hPa West 8 km/h 12.9 km/h 67% 0 mm
09:49 0.3 °C -5.1 °C 1021.6 hPa WSW 8 km/h 19.3 km/h 67% 0 mm
09:54 0.4 °C -5 °C 1021.6 hPa WSW 1.6 km/h 19.3 km/h 67% 0 mm
09:59 0.6 °C -5.1 °C 1021.6 hPa West 3.2 km/h 11.3 km/h 66% 0 mm
10:04 0.6 °C -4.9 °C 1021.6 hPa WSW 4.8 km/h 9.7 km/h 67% 0 mm
10:09 0.7 °C -4.8 °C 1021.6 hPa Calm   9.7 km/h 67% 0 mm
10:14 0.7 °C -4.7 °C 1021.6 hPa WNW 3.2 km/h 9.7 km/h 67% 0 mm
10:19 1 °C -4.2 °C 1021.6 hPa WSW 8 km/h 14.5 km/h 68% 0 mm
10:24 1.1 °C -4.2 °C 1021.6 hPa West 6.4 km/h 14.5 km/h 68% 0 mm
10:29 1.1 °C -4.6 °C 1021.6 hPa WSW 8 km/h 16.1 km/h 66% 0 mm
10:34 0.8 °C -4.4 °C 1021.6 hPa WNW 8 km/h 16.1 km/h 68% 0 mm
10:39 0.6 °C -4.4 °C 1021.6 hPa NW 4.8 km/h 12.9 km/h 69% 0 mm
10:44 0.7 °C -4.1 °C 1021.6 hPa West 4.8 km/h 12.9 km/h 70% 0 mm
10:49 0.9 °C -4.3 °C 1021.6 hPa WNW 4.8 km/h 11.3 km/h 68% 0 mm
10:54 1.3 °C -3.9 °C 1021.6 hPa West 8 km/h 12.9 km/h 68% 0 mm
10:59 1.8 °C -4.3 °C 1021.6 hPa WSW 12.9 km/h 20.9 km/h 64% 0 mm
11:04 1.9 °C -4.3 °C 1021.6 hPa West 11.3 km/h 20.9 km/h 63% 0 mm
11:09 2.3 °C -4.3 °C 1021.6 hPa West 11.3 km/h 20.9 km/h 62% 0 mm
11:14 2.6 °C -4 °C 1021.9 hPa WNW 11.3 km/h 19.3 km/h 62% 0 mm
11:19 2.8 °C -4.4 °C 1021.9 hPa WNW 14.5 km/h 27.4 km/h 59% 0 mm
11:24 2.8 °C -4.2 °C 1021.9 hPa West 11.3 km/h 27.4 km/h 60% 0 mm
11:29 2.8 °C -4.6 °C 1021.9 hPa WNW 11.3 km/h 25.7 km/h 58% 0 mm
11:34 2.3 °C -5.2 °C 1021.9 hPa West 16.1 km/h 29 km/h 58% 0 mm
11:39 1.9 °C -5.1 °C 1021.9 hPa West 11.3 km/h 29 km/h 60% 0 mm
11:44 1.8 °C -5.1 °C 1021.9 hPa WNW 14.5 km/h 25.7 km/h 60% 0 mm
11:49 1.9 °C -5 °C 1021.9 hPa West 14.5 km/h 25.7 km/h 60% 0 mm
11:54 2 °C -4.7 °C 1021.9 hPa WSW 9.7 km/h 22.5 km/h 61% 0 mm
11:59 1.9 °C -5 °C 1021.9 hPa West 11.3 km/h 22.5 km/h 60% 0 mm
12:04 2.3 °C -4.6 °C 1022.2 hPa West 11.3 km/h 22.5 km/h 60% 0 mm
12:09 2.2 °C -5.2 °C 1022.2 hPa West 12.9 km/h 27.4 km/h 58% 0 mm
12:14 2 °C -5.2 °C 1022.2 hPa WNW 11.3 km/h 27.4 km/h 59% 0 mm
12:19 2.1 °C -4.8 °C 1022.2 hPa West 9.7 km/h 20.9 km/h 60% 0 mm
12:24 2.1 °C -5.3 °C 1022.2 hPa West 12.9 km/h 27.4 km/h 58% 0 mm
12:29 1.9 °C -5.7 °C 1022.2 hPa WNW 17.7 km/h 27.4 km/h 57% 0 mm
12:34 2.4 °C -4.8 °C 1022.2 hPa WNW 8 km/h 27.4 km/h 59% 0 mm
12:39 2.8 °C -5.1 °C 1022.2 hPa West 16.1 km/h 24.1 km/h 56% 0 mm
12:44 2.6 °C -5.8 °C 1022.2 hPa West 16.1 km/h 27.4 km/h 54% 0 mm
12:49 2.4 °C -5.4 °C 1022.2 hPa WSW 8 km/h 27.4 km/h 56% 0 mm
12:54 2.4 °C -5.7 °C 1022.2 hPa WSW 12.9 km/h 20.9 km/h 55% 0 mm
12:59 2.8 °C -4.8 °C 1022.2 hPa WSW 9.7 km/h 22.5 km/h 57% 0 mm
13:04 3.2 °C -5.2 °C 1022.2 hPa WSW 11.3 km/h 25.7 km/h 54% 0 mm
13:09 3.1 °C -5.8 °C 1022.6 hPa WNW 14.5 km/h 25.7 km/h 52% 0 mm
13:14 3.1 °C -5.8 °C 1022.2 hPa West 11.3 km/h 25.7 km/h 52% 0 mm
13:19 3.3 °C -5.7 °C 1022.6 hPa WNW 9.7 km/h 27.4 km/h 52% 0 mm
13:24 3.5 °C -5.7 °C 1022.2 hPa WSW 11.3 km/h 27.4 km/h 51% 0 mm
13:29 3.8 °C -5.7 °C 1022.2 hPa West 12.9 km/h 20.9 km/h 50% 0 mm
13:34 3.9 °C -5.6 °C 1022.2 hPa West 9.7 km/h 20.9 km/h 50% 0 mm
13:39 3.8 °C -5.9 °C 1022.2 hPa SW 14.5 km/h 27.4 km/h 49% 0 mm
13:44 3.2 °C -6.2 °C 1022.2 hPa WNW 9.7 km/h 27.4 km/h 50% 0 mm
13:49 3.3 °C -6.2 °C 1022.2 hPa WNW 12.9 km/h 24.1 km/h 50% 0 mm
13:54 3.4 °C -6.3 °C 1022.2 hPa West 9.7 km/h 24.1 km/h 49% 0 mm
13:59 3.6 °C -6.4 °C 1022.2 hPa West 9.7 km/h 24.1 km/h 48% 0 mm
14:04 3.7 °C -6.3 °C 1022.2 hPa West 11.3 km/h 19.3 km/h 48% 0 mm
14:09 3.8 °C -6.2 °C 1021.9 hPa WNW 9.7 km/h 19.3 km/h 48% 0 mm
14:14 3.6 °C -6.2 °C 1021.9 hPa West 9.7 km/h 17.7 km/h 49% 0 mm
14:19 3 °C -6.7 °C 1022.2 hPa West 9.7 km/h 19.3 km/h 49% 0 mm
14:24 2.6 °C -7.1 °C 1022.2 hPa West 12.9 km/h 24.1 km/h 49% 0 mm
14:29 2.4 °C -6.9 °C 1022.2 hPa West 9.7 km/h 24.1 km/h 50% 0 mm
14:35 2.4 °C -6.7 °C 1022.2 hPa West 9.7 km/h 19.3 km/h 51% 0 mm
14:44 2.6 °C -6.3 °C 1022.2 hPa WSW 8 km/h 19.3 km/h 52% 0 mm
14:49 2.6 °C -6.3 °C 1022.2 hPa West 6.4 km/h 19.3 km/h 52% 0 mm
14:54 2.6 °C -6.3 °C 1022.2 hPa WSW 8 km/h 14.5 km/h 52% 0 mm
14:59 2.6 °C -6.3 °C 1022.6 hPa WSW 6.4 km/h 14.5 km/h 52% 0 mm
15:04 2.7 °C -6.4 °C 1022.6 hPa West 6.4 km/h 14.5 km/h 51% 0 mm
15:09 2.7 °C -6.2 °C 1022.6 hPa WNW 4.8 km/h 16.1 km/h 52% 0 mm
15:14 2.7 °C -6.4 °C 1022.6 hPa WSW 8 km/h 16.1 km/h 51% 0 mm
15:19 2.8 °C -6.4 °C 1022.6 hPa WSW 8 km/h 14.5 km/h 51% 0 mm
15:24 3.1 °C -6.4 °C 1022.6 hPa West 8 km/h 17.7 km/h 50% 0 mm
15:29 3.1 °C -6.6 °C 1022.6 hPa West 6.4 km/h 19.3 km/h 49% 0 mm
15:34 2.9 °C -6.3 °C 1022.6 hPa West 4.8 km/h 19.3 km/h 51% 0 mm
15:39 2.8 °C -6.6 °C 1022.6 hPa WSW 8 km/h 16.1 km/h 50% 0 mm
15:44 2.7 °C -6.7 °C 1022.6 hPa SW 4.8 km/h 14.5 km/h 50% 0 mm
15:49 2.6 °C -6.8 °C 1022.6 hPa WSW 4.8 km/h 11.3 km/h 50% 0 mm
15:54 2.4 °C -6.7 °C 1022.6 hPa WSW 6.4 km/h 12.9 km/h 51% 0 mm
15:59 2.4 °C -6.7 °C 1022.6 hPa WSW 3.2 km/h 12.9 km/h 51% 0 mm
16:04 2.4 °C -6.4 °C 1022.6 hPa Calm   9.7 km/h 52% 0 mm
16:09 2.3 °C -6.5 °C 1022.6 hPa Calm   9.7 km/h 52% 0 mm
16:14 2.3 °C -6.1 °C 1022.6 hPa Calm   9.7 km/h 54% 0 mm
16:19 2.2 °C -6.4 °C 1022.9 hPa Calm   6.4 km/h 53% 0 mm
16:24 2.2 °C -6.4 °C 1022.9 hPa Calm   6.4 km/h 53% 0 mm
16:29 2.1 °C -6.2 °C 1022.9 hPa Calm   6.4 km/h 54% 0 mm
16:34 2.1 °C -6.1 °C 1022.9 hPa WSW 1.6 km/h 6.4 km/h 55% 0 mm
16:39 2.1 °C -6.3 °C 1023.2 hPa SW 1.6 km/h 12.9 km/h 54% 0 mm
16:44 2.2 °C -6.4 °C 1023.2 hPa WSW 9.7 km/h 17.7 km/h 53% 0 mm
16:49 2.3 °C -6.5 °C 1023.2 hPa SW 11.3 km/h 17.7 km/h 52% 0 mm
16:54 2.5 °C -6.4 °C 1023.2 hPa WSW 9.7 km/h 22.5 km/h 52% 0 mm
16:59 2.6 °C -6.5 °C 1023.2 hPa WSW 6.4 km/h 22.5 km/h 51% 0 mm
17:04 2.6 °C -6.3 °C 1023.6 hPa WSW 9.7 km/h 19.3 km/h 52% 0 mm
17:09 2.7 °C -6.4 °C 1023.6 hPa West 12.9 km/h 22.5 km/h 51% 0 mm
17:14 2.7 °C -6.2 °C 1023.6 hPa WSW 12.9 km/h 24.1 km/h 52% 0 mm
17:19 2.7 °C -6.2 °C 1023.9 hPa West 9.7 km/h 24.1 km/h 52% 0 mm
17:24 2.8 °C -6.1 °C 1023.9 hPa West 6.4 km/h 24.1 km/h 52% 0 mm
17:29 2.7 °C -6.2 °C 1023.6 hPa West 8 km/h 24.1 km/h 52% 0 mm
17:34 2.7 °C -5.9 °C 1023.6 hPa West 8 km/h 14.5 km/h 53% 0 mm
17:39 2.7 °C -5.9 °C 1023.6 hPa WSW 6.4 km/h 12.9 km/h 53% 0 mm
17:44 2.6 °C -5.8 °C 1023.6 hPa WSW 4.8 km/h 12.9 km/h 54% 0 mm
17:49 2.4 °C -5.9 °C 1023.6 hPa West 3.2 km/h 11.3 km/h 54% 0 mm
17:54 2.3 °C -5.8 °C 1023.9 hPa SW 3.2 km/h 11.3 km/h 55% 0 mm
17:59 2.3 °C -5.6 °C 1023.9 hPa West 4.8 km/h 17.7 km/h 56% 0 mm
18:04 2.3 °C -5.6 °C 1023.9 hPa WSW 6.4 km/h 17.7 km/h 56% 0 mm
18:09 2.3 °C -5.4 °C 1023.9 hPa WSW 11.3 km/h 22.5 km/h 57% 0 mm
18:14 2.2 °C -5.2 °C 1023.6 hPa WSW 8 km/h 22.5 km/h 58% 0 mm
18:19 2.1 °C -5.1 °C 1023.6 hPa WSW 9.7 km/h 19.3 km/h 59% 0 mm
18:24 2.1 °C -5.1 °C 1023.6 hPa WSW 11.3 km/h 20.9 km/h 59% 0 mm
18:29 2 °C -5.2 °C 1023.6 hPa West 11.3 km/h 25.7 km/h 59% 0 mm
18:34 1.8 °C -5.3 °C 1023.6 hPa WSW 12.9 km/h 25.7 km/h 59% 0 mm
18:39 1.8 °C -5.2 °C 1023.6 hPa WSW 1.6 km/h 24.1 km/h 60% 0 mm
18:44 1.5 °C -5.2 °C 1023.6 hPa WSW 8 km/h 20.9 km/h 61% 0 mm
18:49 1.4 °C -5.3 °C 1023.6 hPa WSW 3.2 km/h 20.9 km/h 61% 0 mm
18:54 1.3 °C -5.2 °C 1023.6 hPa WSW 6.4 km/h 12.9 km/h 62% 0 mm
18:59 1.2 °C -5.3 °C 1023.6 hPa WSW 4.8 km/h 20.9 km/h 62% 0 mm
19:04 0.9 °C -5.3 °C 1023.6 hPa WSW 4.8 km/h 20.9 km/h 63% 0 mm
19:09 0.9 °C -5.3 °C 1023.6 hPa SW 6.4 km/h 12.9 km/h 63% 0 mm
19:14 0.9 °C -5.5 °C 1023.6 hPa SW 6.4 km/h 14.5 km/h 62% 0 mm
19:19 1 °C -5.4 °C 1023.6 hPa SW 1.6 km/h 16.1 km/h 62% 0 mm
19:24 0.9 °C -5.5 °C 1023.6 hPa WSW 1.6 km/h 16.1 km/h 62% 0 mm
19:29 0.8 °C -5.7 °C 1023.6 hPa SW 3.2 km/h 16.1 km/h 62% 0 mm
19:34 0.6 °C -5.7 °C 1023.6 hPa SSW 1.6 km/h 8 km/h 63% 0 mm
19:39 0.6 °C -5.7 °C 1023.6 hPa SW 3.2 km/h 9.7 km/h 63% 0 mm
19:44 0.6 °C -5.7 °C 1023.6 hPa SW 3.2 km/h 9.7 km/h 63% 0 mm
19:49 0.5 °C -5.5 °C 1023.6 hPa SW 4.8 km/h 12.9 km/h 64% 0 mm
19:54 0.6 °C -5.4 °C 1023.6 hPa SSW 11.3 km/h 17.7 km/h 64% 0 mm
19:59 0.7 °C -5.3 °C 1023.6 hPa SSW 8 km/h 17.7 km/h 64% 0 mm
20:04 0.6 °C -5.2 °C 1023.6 hPa SSW 6.4 km/h 16.1 km/h 65% 0 mm
20:09 0.5 °C -5.3 °C 1023.6 hPa SW 8 km/h 16.1 km/h 65% 0 mm
20:14 0.4 °C -5.4 °C 1023.6 hPa SW 6.4 km/h 16.1 km/h 65% 0 mm
20:19 0.3 °C -5.3 °C 1023.6 hPa SSW 8 km/h 14.5 km/h 66% 0 mm
20:24 0.3 °C -5.3 °C 1023.6 hPa SSW 9.7 km/h 17.7 km/h 66% 0 mm
20:29 0.2 °C -5.4 °C 1023.6 hPa SSW 6.4 km/h 19.3 km/h 66% 0 mm
20:34 0.1 °C -5.6 °C 1023.6 hPa SSW 4.8 km/h 19.3 km/h 66% 0 mm
20:39 0 °C -5.4 °C 1023.6 hPa SSW 9.7 km/h 19.3 km/h 67% 0 mm
20:44 -0.1 °C -5.5 °C 1023.6 hPa SSW 6.4 km/h 17.7 km/h 67% 0 mm
20:49 -0.2 °C -5.6 °C 1023.6 hPa SSW 9.7 km/h 17.7 km/h 67% 0 mm
20:54 -0.2 °C -5.6 °C 1023.6 hPa SW 9.7 km/h 17.7 km/h 67% 0 mm
20:59 -0.2 °C -5.8 °C 1023.6 hPa SSW 8 km/h 17.7 km/h 66% 0 mm
21:04 -0.2 °C -5.8 °C 1023.6 hPa SSW 6.4 km/h 19.3 km/h 66% 0 mm
21:09 -0.2 °C -5.8 °C 1023.6 hPa SSW 8 km/h 19.3 km/h 66% 0 mm
21:14 -0.2 °C -5.8 °C 1023.6 hPa SW 11.3 km/h 17.7 km/h 66% 0 mm
21:19 0 °C -5.8 °C 1023.6 hPa SW 11.3 km/h 19.3 km/h 65% 0 mm
21:24 0.1 °C -5.9 °C 1023.6 hPa SSW 11.3 km/h 19.3 km/h 64% 0 mm
21:29 0 °C -6 °C 1023.6 hPa SSW 6.4 km/h 17.7 km/h 64% 0 mm
21:34 0 °C -6 °C 1023.6 hPa SSW 8 km/h 16.1 km/h 64% 0 mm
21:39 -0.1 °C -6.1 °C 1023.6 hPa SSW 4.8 km/h 16.1 km/h 64% 0 mm
21:44 -0.1 °C -6.1 °C 1023.2 hPa SW 6.4 km/h 14.5 km/h 64% 0 mm
21:49 0.1 °C -5.9 °C 1023.2 hPa SSW 8 km/h 17.7 km/h 64% 0 mm
21:54 0.1 °C -6.2 °C 1023.2 hPa SSW 8 km/h 17.7 km/h 63% 0 mm
21:59 0.1 °C -6.1 °C 1023.2 hPa SW 8 km/h 17.7 km/h 63% 0 mm
22:04 0.2 °C -6.1 °C 1022.9 hPa SSW 9.7 km/h 17.7 km/h 63% 0 mm
22:09 0.3 °C -6.2 °C 1022.9 hPa SSW 11.3 km/h 22.5 km/h 62% 0 mm
22:14 0.4 °C -6.1 °C 1022.9 hPa SSW 8 km/h 25.7 km/h 62% 0 mm
22:19 0.5 °C -6.2 °C 1022.9 hPa SSW 11.3 km/h 25.7 km/h 61% 0 mm
22:24 0.6 °C -6.3 °C 1022.9 hPa SSW 8 km/h 24.1 km/h 60% 0 mm
22:29 0.7 °C -6.2 °C 1022.6 hPa SSW 9.7 km/h 19.3 km/h 60% 0 mm
22:39 0.8 °C -6.1 °C 1022.6 hPa SSW 9.7 km/h 24.1 km/h 60% 0 mm
22:44 0.8 °C -6.1 °C 1022.6 hPa SW 9.7 km/h 24.1 km/h 60% 0 mm
22:49 0.9 °C -6.2 °C 1022.6 hPa SW 9.7 km/h 29 km/h 59% 0 mm
22:54 0.9 °C -6.2 °C 1022.6 hPa SSW 9.7 km/h 29 km/h 59% 0 mm
22:59 1 °C -6.1 °C 1022.6 hPa SSW 11.3 km/h 27.4 km/h 59% 0 mm
23:04 1 °C -6.1 °C 1022.6 hPa SSW 11.3 km/h 27.4 km/h 59% 0 mm
23:09 1 °C -6.1 °C 1022.6 hPa SSW 8 km/h 20.9 km/h 59% 0 mm
23:14 1.1 °C -6.1 °C 1022.6 hPa SSW 8 km/h 20.9 km/h 59% 0 mm
23:19 1.1 °C -6.1 °C 1022.6 hPa SSW 11.3 km/h 20.9 km/h 59% 0 mm
23:24 1.2 °C -6.2 °C 1022.6 hPa SSW 12.9 km/h 24.1 km/h 58% 0 mm
23:29 1.2 °C -5.9 °C 1022.2 hPa SSW 4.8 km/h 24.1 km/h 59% 0 mm
23:34 1.2 °C -6.1 °C 1022.2 hPa SSW 9.7 km/h 22.5 km/h 58% 0 mm
23:39 1.3 °C -6 °C 1022.2 hPa SSW 16.1 km/h 24.1 km/h 58% 0 mm
23:44 1.4 °C -6.2 °C 1022.2 hPa SSW 14.5 km/h 24.1 km/h 57% 0 mm
23:49 1.4 °C -5.9 °C 1022.2 hPa SSW 9.7 km/h 27.4 km/h 58% 0 mm
23:54 1.4 °C -5.9 °C 1022.2 hPa SSW 11.3 km/h 27.4 km/h 58% 0 mm
23:59 1.5 °C -6.1 °C 1022.2 hPa SSW 14.5 km/h 29 km/h 57% 0 mm
Westford Weather
Compliments of Weather Underground

 
 
Current Radar Loop:

Copyright © WestfordWeather.net 2007-2014. All rights reserved.